Weather History for Columbus, OH

Change the Weather History Date:

Monday, February 18, 2013

  Actual Average Record
Temperature  
Mean Temperature 34 °F 33 °F  
Max Temperature 52 °F 41 °F 63 °F (2011)
Min Temperature 16 °F 26 °F -7 °F (1936)
Degree Days  
Heating Degree Days 31 32  
Month to date heating degree days 624 602  
Since 1 July heating degree days 3540 3694  
Cooling Degree Days 0 0  
Month to date cooling degree days 0 0  
Year to date cooling degree days 0 0  
Moisture  
Dew Point 19 °F    
Average Humidity 58    
Maximum Humidity 74    
Minimum Humidity 41    
Precipitation  
Precipitation T in 0.08 in 0.83 in (1914)
Month to date precipitation 0.56 1.46  
Year to date precipitation 2.81 4.19  
Snow  
Snow 0.00 in 0.10 in 3.40 in (1979)
Month to date snowfall 5.3 3.9  
Since 1 July snowfall 27.5 19.2  
Snow Depth 0.00 in    
Sea Level Pressure  
Sea Level Pressure 30.08 in    
Wind  
Wind Speed 13 mph (SSE)    
Max Wind Speed 29 mph    
Max Gust Speed 37 mph    
Visibility 10 miles    
Events      
T = Trace of Precipitation, MM = Missing Value Source: NWS Daily Summary

Daily Weather History Graph

Daily Weather History Graph

Search for Another Location

Airport:

Trip Planner

Search our weather history database for the weather conditions in past years. The results will help you decide how hot, cold, wet, or windy it might be!

Date:

Astronomy

Feb. 18, 2013 Rise Set
Actual Time 7:20 AM EST 6:11 PM EST
Civil Twilight 6:52 AM EST 6:38 PM EST
Nautical Twilight 6:20 AM EST 7:10 PM EST
Astronomical Twilight 5:49 AM EST 7:41 PM EST
Moon 11:56 AM EST (2/18) 1:58 AM EST (2/18)
Length of Visible Light 11h 46m
Length of Day
10h 51m
First Quarter, 58% of the Moon is Illuminated
Feb 18
First Quarter
Feb 25
Full
Mar 4
Last Quarter
Mar 11
New
Mar 19
First Quarter

Hourly Weather History & Observations

Time (EST) Temp. Windchill Dew Point Humidity Pressure Visibility Wind Dir Wind Speed Gust Speed Precip Events Conditions
12:51 AM 17.1 °F 8.7 °F 10.0 °F 74% 30.28 in 10.0 mi SE 5.8 mph - N/A   Clear
1:51 AM 19.0 °F 8.2 °F 9.0 °F 65% 30.28 in 10.0 mi SE 9.2 mph - N/A   Clear
2:51 AM 19.0 °F 9.0 °F 9.0 °F 65% 30.27 in 10.0 mi SE 8.1 mph - N/A   Clear
3:51 AM 19.0 °F 9.0 °F 9.0 °F 65% 30.27 in 10.0 mi SE 8.1 mph - N/A   Clear
4:51 AM 19.0 °F 9.0 °F 9.0 °F 65% 30.25 in 10.0 mi SE 8.1 mph - N/A   Clear
5:51 AM 19.0 °F 9.0 °F 9.0 °F 65% 30.25 in 10.0 mi SE 8.1 mph - N/A   Clear
6:51 AM 19.9 °F 8.6 °F 9.0 °F 62% 30.23 in 10.0 mi SE 10.4 mph - N/A   Clear
7:51 AM 21.0 °F 9.3 °F 9.0 °F 60% 30.23 in 10.0 mi SE 11.5 mph - N/A   Scattered Clouds
8:51 AM 25.0 °F 13.1 °F 10.0 °F 53% 30.21 in 10.0 mi SE 13.8 mph - N/A   Mostly Cloudy
9:51 AM 28.9 °F 16.9 °F 10.9 °F 47% 30.17 in 10.0 mi SE 17.3 mph - N/A   Mostly Cloudy
10:51 AM 35.6 °F 27.1 °F 15.8 °F 44% 30.11 in 10.0 mi SE 12.7 mph - N/A   Mostly Cloudy
11:51 AM 39.9 °F 33.4 °F 19.0 °F 43% 30.10 in 10.0 mi SSE 10.4 mph - N/A   Clear
12:51 PM 44.1 °F 37.4 °F 23.0 °F 43% 30.07 in 10.0 mi South 13.8 mph 25.3 mph N/A   Clear
1:51 PM 46.9 °F - 26.1 °F 44% 30.03 in 10.0 mi South 15.0 mph 23.0 mph N/A   Clear
2:51 PM 48.9 °F - 27.0 °F 43% 30.01 in 10.0 mi South 19.6 mph - N/A   Clear
3:51 PM 50.0 °F - 28.0 °F 43% 29.98 in 10.0 mi South 17.3 mph 23.0 mph N/A   Clear
4:51 PM 50.0 °F - 28.9 °F 44% 29.96 in 10.0 mi South 16.1 mph - N/A   Mostly Cloudy
5:51 PM 50.0 °F - 30.0 °F 46% 29.91 in 10.0 mi SSE 13.8 mph - N/A   Mostly Cloudy
6:51 PM 48.0 °F - 30.0 °F 50% 29.91 in 10.0 mi SE 12.7 mph - N/A   Mostly Cloudy
7:51 PM 48.9 °F - 30.9 °F 50% 29.89 in 10.0 mi SSE 15.0 mph - N/A   Overcast
8:51 PM 48.0 °F - 32.0 °F 54% 29.87 in 10.0 mi SSE 11.5 mph - N/A   Scattered Clouds
9:51 PM 48.9 °F - 30.0 °F 48% 29.83 in 10.0 mi SSE 18.4 mph - N/A   Mostly Cloudy
10:51 PM 48.9 °F - 30.0 °F 48% 29.79 in 10.0 mi SSE 17.3 mph 24.2 mph N/A   Overcast
11:51 PM 48.9 °F - 28.9 °F 46% 29.79 in 10.0 mi South 13.8 mph - 0.00 in   Overcast